DW1234 Weather Reports


Display with metric or nautical units.
time (UTC)temp
F
wind
direction
speed
MPH
gust
MPH
rain 1hr
in
rain 24hr
in
rain mn
in
humidity
%
barometer
mb
20260904190232 98 165 7.0 10.0 0.00 0.00 0.00 57 1013.0
20260904190005 97 158 5.0 10.0 0.00 0.00 0.00 54 1009.9
20260904185743 98 198 5.0 10.0 0.00 0.00 0.00 55 1013.0
20260904185249 98 195 7.0 10.0 0.00 0.00 0.00 54 1013.1
20260904184740 98 199 7.0 10.0 0.00 0.00 0.00 55 1013.1
20260904184533 97 160 6.0 10.0 0.00 0.00 0.00 54 1010.0
20260904184252 98 223 7.0 10.0 0.00 0.00 0.00 57 1013.2
20260904183733 97 169 8.0 11.0 0.00 0.00 0.00 56 1013.1
20260904183306 97 214 6.0 10.0 0.00 0.00 0.00 56 1013.1
20260904183009 97 170 5.0 10.0 0.00 0.00 0.00 56 1010.0
20260904182726 97 211 7.0 10.0 0.00 0.00 0.00 57 1013.1
20260904182233 97 207 6.0 10.0 0.00 0.00 0.00 55 1013.2
20260904181745 97 211 8.0 10.0 0.00 0.00 0.00 56 1013.2
20260904181515 97 224 5.0 11.0 0.00 0.00 0.00 57 1010.2
20260904181228 97 180 6.0 9.0 0.00 0.00 0.00 57 1013.2
20260904180800 97 217 6.0 10.0 0.00 0.00 0.00 56 1013.2
20260904180222 96 220 4.0 10.0 0.00 0.00 0.00 56 1013.3
20260904180054 96 242 4.0 10.0 0.00 0.00 0.00 55 1010.2
20260904175733 97 209 7.0 10.0 0.00 0.00 0.00 55 1013.2
20260904175246 97 210 4.0 11.0 0.00 0.00 0.00 56 1013.3
20260904174728 97 206 7.0 10.0 0.00 0.00 0.00 57 1013.3
20260904174607 96 228 3.0 9.0 0.00 0.00 0.00 58 1010.2
20260904174501 96 227 3.0 9.0 0.00 0.00 0.00 57 1010.3
20260904174256 96 204 4.0 9.0 0.00 0.00 0.00 56 1013.3
20260904173745 96 208 6.0 10.0 0.00 0.00 0.00 56 1013.3
20260904173234 96 205 6.0 10.0 0.00 0.00 0.00 58 1013.3
20260904173025 95 199 2.0 10.0 0.00 0.00 0.00 60 1010.3
20260904172744 95 177 5.0 10.0 0.00 0.00 0.00 58 1013.3
20260904172226 95 199 6.0 10.0 0.00 0.00 0.00 58 1013.3
20260904171738 94 194 8.0 10.0 0.00 0.00 0.00 61 1013.3
20260904171529 93 212 3.0 10.0 0.00 0.00 0.00 62 1010.3
20260904171246 93 146 5.0 10.0 0.00 0.00 0.00 61 1013.3
20260904170729 93 164 7.0 10.0 0.00 0.00 0.00 60 1013.3
20260904170240 93 164 5.0 10.0 0.00 0.00 0.00 62 1013.3
20260904170027 92 153 5.0 10.0 0.00 0.00 0.00 62 1010.3
20260904165723 93 158 4.0 10.0 0.00 0.00 0.00 60 1013.3
20260904165236 93 220 5.0 12.0 0.00 0.00 0.00 61 1013.3
20260904164747 93 143 5.0 11.0 0.00 0.00 0.00 62 1013.3
20260904164530 92 219 3.0 11.0 0.00 0.00 0.00 63 1010.3
20260904164231 92 234 8.0 11.0 0.00 0.00 0.00 62 1013.3
20260904163740 93 211 6.0 12.0 0.00 0.00 0.00 64 1013.2
20260904163223 92 200 5.0 10.0 0.00 0.00 0.00 64 1013.2
20260904163031 91 192 4.0 11.0 0.00 0.00 0.00 63 1010.2
20260904162750 92 207 7.0 11.0 0.00 0.00 0.00 62 1013.3
20260904162234 92 226 6.0 11.0 0.00 0.00 0.00 61 1013.2
20260904161744 92 209 7.0 12.0 0.00 0.00 0.00 61 1013.3
20260904161511 92 221 6.0 10.0 0.00 0.00 0.00 61 1010.3
20260904161227 92 225 7.0 10.0 0.00 0.00 0.00 63 1013.3
20260904160735 92 202 6.0 10.0 0.00 0.00 0.00 64 1013.3
20260904160307 91 173 5.0 10.0 0.00 0.00 0.00 65 1013.3
20260904160049 91 200 4.0 9.0 0.00 0.00 0.00 64 1010.3
20260904155725 91 172 6.0 10.0 0.00 0.00 0.00 64 1013.3
20260904155237 90 199 8.0 10.0 0.00 0.00 0.00 66 1013.3
20260904154747 90 179 7.0 10.0 0.00 0.00 0.00 65 1013.4
20260904154533 89 174 7.0 10.0 0.00 0.00 0.00 65 1010.4
20260904154238 89 182 6.0 12.0 0.00 0.00 0.00 65 1013.3
20260904153806 89 184 7.0 12.0 0.00 0.00 0.00 66 1013.2
20260904153228 88 173 7.0 11.0 0.00 0.00 0.00 68 1013.4
20260904153006 88 186 7.0 11.0 0.00 0.00 0.00 68 1010.4
20260904152739 88 198 8.0 12.0 0.00 0.00 0.00 69 1013.2
20260904152308 88 199 7.0 11.0 0.00 0.00 0.00 68 1013.2
20260904151732 87 224 6.0 10.0 0.00 0.00 0.00 69 1013.2
20260904151548 87 176 5.0 10.0 0.00 0.00 0.00 68 1010.3
20260904151245 87 213 6.0 10.0 0.00 0.00 0.00 67 1013.2
20260904150727 87 213 8.0 12.0 0.00 0.00 0.00 67 1013.2
20260904150239 88 221 6.0 12.0 0.00 0.00 0.00 66 1013.3
20260904150049 87 210 6.0 11.0 0.00 0.00 0.00 66 1010.3
20260904145722 88 155 6.0 11.0 0.00 0.00 0.00 68 1013.3
20260904145234 88 199 7.0 11.0 0.00 0.00 0.00 70 1013.3
20260904144742 87 159 6.0 10.0 0.00 0.00 0.00 69 1013.3
20260904144550 87 188 5.0 10.0 0.00 0.00 0.00 69 1010.3
20260904144225 87 171 6.0 10.0 0.00 0.00 0.00 70 1013.4
20260904143754 86 184 7.0 12.0 0.00 0.00 0.00 70 1013.4
20260904143244 86 179 6.0 11.0 0.00 0.00 0.00 71 1013.3
20260904143010 85 200 6.0 11.0 0.00 0.00 0.00 70 1010.5
20260904142754 85 153 7.0 11.0 0.00 0.00 0.00 70 1013.3
20260904142244 85 197 6.0 10.0 0.00 0.00 0.00 72 1013.4
20260904141727 85 161 6.0 9.0 0.00 0.00 0.00 73 1013.4
20260904141549 84 183 4.0 9.0 0.00 0.00 0.00 73 1010.5
20260904141235 84 202 4.0 9.0 0.00 0.00 0.00 73 1013.4
20260904140745 84 158 6.0 9.0 0.00 0.00 0.00 73 1013.3
20260904140235 83 161 5.0 9.0 0.00 0.00 0.00 74 1013.3
20260904140022 82 184 5.0 10.0 0.00 0.00 0.00 74 1010.5
20260904135748 83 180 7.0 10.0 0.00 0.00 0.00 75 1013.3
20260904135231 82 203 7.0 9.0 0.00 0.00 0.00 76 1013.2
20260904134804 82 170 7.0 9.0 0.00 0.00 0.00 77 1013.2
20260904134554 81 192 5.0 9.0 0.00 0.00 0.00 77 1010.3
20260904134228 81 171 7.0 11.0 0.00 0.00 0.00 78 1013.1
20260904133734 80 178 6.0 11.0 0.00 0.00 0.00 78 1013.0
20260904133245 80 171 7.0 10.0 0.00 0.00 0.00 78 1013.0
20260904133058 79 175 7.0 10.0 0.00 0.00 0.00 78 1010.2
20260904133001 79 181 6.0 11.0 0.00 0.00 0.00 78 1010.1
20260904132728 80 186 7.0 10.0 0.00 0.00 0.00 79 1013.0
20260904132300 79 165 7.0 10.0 0.00 0.00 0.00 80 1013.0
20260904131723 79 159 7.0 11.0 0.00 0.00 0.00 81 1012.9
20260904131557 78 150 6.0 11.0 0.00 0.00 0.00 81 1010.1
20260904131256 78 160 6.0 11.0 0.00 0.00 0.00 81 1012.8
20260904130742 78 178 6.0 11.0 0.00 0.00 0.00 82 1012.8
20260904130228 78 181 6.0 11.0 0.00 0.00 0.00 82 1012.7
20260904130034 77 156 6.0 11.0 0.00 0.00 0.00 83 1009.9
20260904125739 77 155 7.0 10.0 0.00 0.00 0.00 83 1012.8
20260904125230 77 155 6.0 9.0 0.00 0.00 0.00 83 1012.7
20260904124742 77 159 6.0 9.0 0.00 0.00 0.00 83 1012.5
20260904124509 76 148 6.0 9.0 0.00 0.00 0.00 83 1009.7
20260904124225 77 155 6.0 8.0 0.00 0.00 0.00 82 1012.6
20260904123754 76 160 6.0 8.0 0.00 0.00 0.00 82 1012.6
20260904123241 76 168 5.0 6.0 0.00 0.00 0.00 82 1012.6
20260904123018 76 175 4.0 6.0 0.00 0.00 0.00 82 1009.7
20260904122722 76 160 5.0 7.0 0.00 0.00 0.00 82 1012.5
20260904122254 76 156 4.0 7.0 0.00 0.00 0.00 81 1012.4
20260904121745 76 153 4.0 5.0 0.00 0.00 0.00 81 1012.4
20260904121543 76 152 4.0 6.0 0.00 0.00 0.00 81 1009.5
20260904121258 77 165 4.0 5.0 0.00 0.00 0.00 81 1012.4
20260904120746 77 165 3.0 5.0 0.00 0.00 0.00 80 1012.4
20260904120226 77 165 3.0 5.0 0.00 0.00 0.00 80 1012.3
20260904120021 76 165 2.0 5.0 0.00 0.00 0.00 80 1009.5
20260904115737 77 159 4.0 5.0 0.00 0.00 0.00 80 1012.3
20260904115249 77 194 3.0 4.0 0.00 0.00 0.00 79 1012.2
20260904114729 77 194 3.0 4.0 0.00 0.00 0.00 79 1012.1
20260904114524 77 194 2.0 4.0 0.00 0.00 0.00 79 1009.2
20260904114243 77 194 3.0 4.0 0.00 0.00 0.00 79 1012.1
20260904113726 77 194 3.0 5.0 0.00 0.00 0.00 79 1012.1
20260904113239 77 194 3.0 5.0 0.00 0.00 0.00 79 1012.0
20260904113025 77 194 3.0 5.0 0.00 0.00 0.00 79 1009.1
20260904112721 77 169 4.0 6.0 0.00 0.00 0.00 79 1012.0
20260904112230 78 167 4.0 6.0 0.00 0.00 0.00 79 1012.0
20260904111800 78 175 5.0 6.0 0.00 0.00 0.00 78 1012.0
20260904111556 77 170 3.0 5.0 0.00 0.00 0.00 78 1009.1
20260904111234 78 178 4.0 5.0 0.00 0.00 0.00 78 1011.9
20260904110805 78 165 4.0 6.0 0.00 0.01 0.00 78 1011.9
20260904110228 78 193 5.0 7.0 0.00 0.01 0.00 78 1011.9
20260904110024 78 180 4.0 6.0 0.00 0.01 0.00 77 1009.1
20260904105800 78 176 4.0 8.0 0.00 0.01 0.00 77 1012.0
20260904105248 78 201 4.0 8.0 0.00 0.01 0.00 77 1011.9
20260904104738 78 164 4.0 7.0 0.00 0.01 0.00 77 1011.9
20260904104524 78 173 4.0 7.0 0.00 0.01 0.00 77 1009.0
20260904104222 79 200 4.0 8.0 0.00 0.01 0.00 77 1011.9
20260904103732 79 200 4.0 8.0 0.00 0.01 0.00 77 1011.9
20260904103245 79 200 4.0 8.0 0.00 0.01 0.00 77 1011.9
20260904103033 78 200 4.0 8.0 0.00 0.01 0.00 77 1009.1
20260904102726 79 198 5.0 9.0 0.00 0.01 0.00 77 1011.9
20260904102238 79 191 5.0 9.0 0.00 0.01 0.00 77 1011.9
20260904101746 79 188 6.0 9.0 0.00 0.01 0.00 76 1011.8
20260904101529 79 196 6.0 9.0 0.00 0.01 0.00 76 1009.0
20260904101230 79 193 6.0 10.0 0.00 0.01 0.00 76 1011.8
20260904100739 79 206 5.0 10.0 0.00 0.01 0.00 76 1011.8
20260904100225 79 181 6.0 11.0 0.00 0.01 0.00 76 1011.8
20260904100026 79 205 5.0 11.0 0.00 0.01 0.00 76 1008.9
20260904095756 79 185 7.0 11.0 0.00 0.01 0.00 75 1011.7
20260904095247 79 184 7.0 13.0 0.00 0.01 0.00 75 1011.8
20260904094731 79 219 8.0 13.0 0.00 0.01 0.00 75 1011.7
20260904094509 79 189 8.0 16.0 0.00 0.01 0.00 75 1008.8
20260904094300 79 182 8.0 16.0 0.00 0.01 0.00 75 1011.7
20260904093722 80 188 8.0 13.0 0.00 0.01 0.00 75 1011.6
20260904093233 80 176 8.0 14.0 0.00 0.01 0.00 75 1011.6
20260904093050 79 171 8.0 14.0 0.00 0.01 0.00 75 1008.7
20260904092806 79 200 9.0 14.0 0.00 0.01 0.00 75 1011.6
20260904092227 79 194 9.0 15.0 0.00 0.01 0.00 75 1011.4
20260904091737 79 203 8.0 13.0 0.00 0.01 0.00 75 1011.4
20260904091524 79 210 8.0 13.0 0.00 0.01 0.00 75 1008.6
20260904091310 79 202 7.0 13.0 0.00 0.01 0.00 75 1011.4
20260904090724 79 190 7.0 15.0 0.00 0.01 0.00 75 1011.4
20260904090255 79 178 9.0 14.0 0.00 0.01 0.00 75 1011.4
20260904090049 79 214 7.0 14.0 0.00 0.01 0.00 75 1008.5
20260904085747 79 175 8.0 12.0 0.00 0.01 0.00 75 1011.3
20260904085232 79 181 8.0 12.0 0.00 0.01 0.00 75 1011.4
20260904084744 79 202 8.0 12.0 0.00 0.01 0.00 75 1011.3
20260904084548 79 208 7.0 12.0 0.00 0.01 0.00 75 1008.5
20260904084228 79 169 8.0 12.0 0.00 0.01 0.00 75 1011.3
20260904083738 79 194 8.0 12.0 0.00 0.01 0.00 75 1011.3
20260904083247 79 207 8.0 13.0 0.00 0.01 0.00 75 1011.3
20260904083102 78 223 8.0 13.0 0.00 0.01 0.00 75 1008.4
20260904082738 79 165 9.0 14.0 0.00 0.01 0.00 75 1011.2
20260904082249 79 202 9.0 13.0 0.00 0.01 0.00 75 1011.2
20260904081741 79 178 9.0 13.0 0.00 0.01 0.00 75 1011.3
20260904081521 78 178 8.0 13.0 0.00 0.01 0.00 74 1008.4
20260904081227 79 188 8.0 13.0 0.00 0.01 0.00 75 1011.3
20260904080737 79 212 7.0 13.0 0.00 0.01 0.00 74 1011.3
20260904080249 79 179 7.0 12.0 0.00 0.01 0.00 74 1011.3
20260904080023 78 202 7.0 14.0 0.00 0.01 0.00 74 1008.5
20260904075732 79 225 8.0 12.0 0.00 0.01 0.00 74 1011.4
20260904075240 79 222 6.0 10.0 0.00 0.01 0.00 73 1011.4
20260904074725 79 198 7.0 11.0 0.00 0.01 0.00 73 1011.5
20260904074546 79 202 6.0 11.0 0.00 0.01 0.00 73 1008.6
20260904074238 79 173 7.0 11.0 0.00 0.01 0.00 73 1011.4
20260904073809 79 180 8.0 12.0 0.00 0.01 0.00 73 1011.4
20260904073232 80 180 8.0 11.0 0.00 0.01 0.00 72 1011.4
20260904073016 79 165 7.0 11.0 0.00 0.01 0.00 72 1008.6
20260904072743 80 173 8.0 11.0 0.00 0.01 0.00 72 1011.3
20260904072225 80 173 7.0 11.0 0.00 0.01 0.00 72 1011.4
20260904071732 80 202 8.0 13.0 0.00 0.01 0.00 71 1011.4
20260904071511 80 193 8.0 15.0 0.00 0.01 0.00 71 1008.6
20260904071245 80 187 8.0 15.0 0.00 0.01 0.00 71 1011.4
20260904070726 80 205 9.0 16.0 0.00 0.01 0.00 71 1011.3
20260904070237 81 166 9.0 16.0 0.00 0.01 0.00 71 1011.3
20260904070007 80 160 8.0 16.0 0.00 0.01 0.00 70 1008.4
20260904065746 81 136 9.0 14.0 0.00 0.01 0.00 70 1011.3
20260904065227 81 181 9.0 14.0 0.00 0.01 0.00 70 1011.3
20260904064740 81 188 7.0 14.0 0.00 0.01 0.00 70 1011.3
20260904064515 81 200 8.0 18.0 0.00 0.01 0.00 70 1008.5
20260904064252 81 173 8.0 18.0 0.00 0.01 0.00 70 1011.4
20260904063738 81 188 10.0 20.0 0.00 0.01 0.00 69 1011.3
20260904063252 81 193 10.0 20.0 0.00 0.01 0.00 69 1011.4
20260904063043 81 164 10.0 20.0 0.00 0.01 0.00 69 1008.5
20260904062743 81 178 10.0 17.0 0.00 0.01 0.00 69 1011.3
20260904062225 81 162 9.0 14.0 0.00 0.01 0.00 69 1011.3
20260904061736 82 201 9.0 16.0 0.00 0.01 0.00 69 1011.3
20260904061541 81 191 7.0 17.0 0.00 0.01 0.00 69 1008.4
20260904061245 82 182 9.0 17.0 0.00 0.01 0.00 69 1011.3
20260904060726 82 209 10.0 17.0 0.00 0.01 0.00 69 1011.3
20260904060234 82 200 9.0 16.0 0.00 0.01 0.00 69 1011.2
20260904060045 81 184 8.0 16.0 0.00 0.01 0.00 69 1008.3
20260904055745 82 178 10.0 16.0 0.00 0.01 0.00 69 1011.2
20260904055229 82 165 11.0 16.0 0.00 0.01 0.00 69 1011.0
20260904054740 82 166 11.0 17.0 0.00 0.01 0.00 69 1011.0
20260904054542 81 173 10.0 17.0 0.00 0.01 0.00 69 1008.1
20260904054231 82 170 10.0 15.0 0.00 0.01 0.00 69 1011.0
20260904053740 82 148 10.0 15.0 0.00 0.01 0.00 69 1011.0
20260904053255 82 173 10.0 16.0 0.00 0.01 0.00 69 1011.0
20260904053059 81 202 10.0 15.0 0.00 0.01 0.00 69 1008.1
20260904053001 81 161 9.0 14.0 0.00 0.01 0.00 69 1008.1
20260904052742 82 150 9.0 14.0 0.00 0.01 0.00 69 1011.0
20260904052224 82 150 11.0 17.0 0.00 0.01 0.00 69 1010.9
20260904051735 82 145 10.0 16.0 0.00 0.01 0.00 69 1010.9
20260904051508 82 146 10.0 16.0 0.00 0.01 0.00 69 1008.1
20260904051249 82 188 11.0 16.0 0.00 0.01 0.00 69 1010.9
20260904050731 82 148 9.0 17.0 0.00 0.01 0.01 69 1011.0
20260904050222 82 166 10.0 16.0 0.00 0.01 0.01 69 1010.9
20260904050051 82 150 9.0 17.0 0.00 0.01 0.01 69 1008.1
20260904045733 82 143 10.0 17.0 0.00 0.01 0.01 68 1010.9
20260904045248 82 139 11.0 17.0 0.00 0.01 0.01 69 1010.9
20260904044727 83 160 9.0 16.0 0.00 0.01 0.01 68 1010.9
20260904044607 82 156 9.0 16.0 0.00 0.01 0.01 68 1008.0
20260904044240 83 159 10.0 15.0 0.00 0.01 0.01 68 1010.9
20260904043722 83 159 10.0 15.0 0.00 0.01 0.01 68 1010.8
20260904043233 83 147 10.0 15.0 0.00 0.01 0.01 68 1010.9
20260904043101 82 150 9.0 15.0 0.00 0.01 0.01 68 1008.0
20260904042745 83 138 11.0 15.0 0.00 0.01 0.01 68 1010.9
20260904042227 83 167 9.0 14.0 0.00 0.01 0.01 68 1010.9
20260904041737 83 165 10.0 15.0 0.00 0.01 0.01 67 1010.9
20260904041605 83 149 8.0 15.0 0.00 0.01 0.01 67 1008.0
20260904041507 83 130 8.0 15.0 0.00 0.01 0.01 67 1008.0
20260904041223 83 176 8.0 15.0 0.00 0.01 0.01 67 1010.9
20260904040729 84 172 8.0 15.0 0.00 0.01 0.01 67 1010.9
20260904040303 84 163 9.0 15.0 0.00 0.01 0.01 67 1010.9
20260904040100 83 158 9.0 15.0 0.00 0.01 0.01 67 1008.0
20260904035725 84 157 9.0 15.0 0.00 0.01 0.01 67 1011.0
20260904035237 84 152 10.0 16.0 0.00 0.01 0.01 66 1010.9
20260904034749 84 150 10.0 16.0 0.00 0.01 0.01 66 1011.0
20260904034559 84 163 8.0 15.0 0.00 0.01 0.01 66 1008.1
20260904034233 84 148 10.0 15.0 0.00 0.01 0.01 66 1011.0
20260904033803 85 198 9.0 16.0 0.00 0.01 0.01 66 1011.0
20260904033221 85 154 10.0 15.0 0.00 0.01 0.01 66 1010.9
20260904033027 84 146 10.0 15.0 0.00 0.01 0.01 66 1008.0
20260904032753 85 132 11.0 18.0 0.00 0.01 0.01 65 1010.9
20260904032244 85 151 10.0 18.0 0.00 0.01 0.01 65 1011.0
20260904031730 85 165 12.0 19.0 0.00 0.01 0.01 65 1010.9
20260904031508 85 148 10.0 17.0 0.00 0.01 0.01 65 1007.9
20260904031243 85 134 11.0 17.0 0.00 0.01 0.01 65 1010.9
20260904030723 85 133 12.0 17.0 0.00 0.01 0.01 65 1010.8
20260904030255 85 132 10.0 17.0 0.00 0.01 0.01 65 1010.7
20260904030046 85 153 8.0 15.0 0.00 0.01 0.01 65 1007.7
20260904025741 85 150 10.0 15.0 0.00 0.01 0.01 65 1010.7
20260904025227 86 138 11.0 19.0 0.00 0.01 0.01 65 1010.7
20260904024740 86 144 10.0 19.0 0.00 0.01 0.01 65 1010.7
20260904024544 85 136 11.0 19.0 0.00 0.01 0.01 65 1007.6
20260904024224 86 130 10.0 19.0 0.00 0.01 0.01 65 1010.7
20260904023734 86 136 10.0 17.0 0.00 0.01 0.01 65 1010.6
20260904023306 86 135 11.0 17.0 0.00 0.01 0.01 64 1010.6
20260904023026 86 161 9.0 14.0 0.00 0.01 0.01 64 1007.6
20260904022730 86 135 10.0 14.0 0.00 0.01 0.01 64 1010.6
20260904022257 87 156 10.0 16.0 0.00 0.01 0.01 64 1010.6
20260904021721 87 144 11.0 18.0 0.00 0.01 0.01 64 1010.5
20260904021504 86 136 10.0 18.0 0.00 0.01 0.01 64 1007.5
20260904021233 87 149 10.0 16.0 0.00 0.01 0.01 64 1010.4
20260904020802 87 144 10.0 17.0 0.00 0.01 0.01 64 1010.5
20260904020225 87 168 10.0 17.0 0.00 0.01 0.01 63 1010.4
20260904020051 86 141 12.0 17.0 0.00 0.01 0.01 63 1007.3
20260904015738 87 147 9.0 17.0 0.00 0.01 0.01 63 1010.4
20260904015223 87 155 8.0 16.0 0.00 0.01 0.01 63 1010.4
20260904014732 87 136 10.0 15.0 0.00 0.01 0.01 63 1010.3
20260904014622 87 167 10.0 15.0 0.00 0.01 0.01 63 1007.3
20260904014244 87 148 8.0 14.0 0.00 0.01 0.01 63 1010.2
20260904013731 88 158 8.0 15.0 0.00 0.01 0.01 63 1010.2
20260904013244 88 151 10.0 16.0 0.00 0.01 0.01 63 1010.2
20260904013029 87 142 9.0 16.0 0.00 0.01 0.01 62 1007.1
20260904012726 88 148 10.0 15.0 0.00 0.01 0.01 62 1010.1
20260904012239 88 177 8.0 15.0 0.00 0.01 0.01 62 1010.0
20260904011726 89 146 9.0 14.0 0.00 0.01 0.01 62 1009.9
20260904011506 88 158 9.0 15.0 0.00 0.01 0.01 62 1006.9
20260904011255 89 155 10.0 15.0 0.00 0.01 0.01 61 1009.9
20260904010744 89 140 8.0 15.0 0.00 0.01 0.01 61 1009.8
20260904010234 90 159 8.0 14.0 0.00 0.01 0.01 60 1009.8
20260904010032 89 138 8.0 14.0 0.00 0.01 0.01 60 1006.8
20260904005745 90 144 9.0 14.0 0.00 0.01 0.01 59 1009.7
20260904005228 90 146 8.0 14.0 0.00 0.01 0.01 58 1009.8
20260904004740 91 144 8.0 14.0 0.00 0.01 0.01 58 1009.7
20260904004528 90 174 8.0 16.0 0.00 0.01 0.01 58 1006.7
20260904004224 91 167 8.0 16.0 0.00 0.01 0.01 58 1009.7
20260904003748 91 147 10.0 16.0 0.00 0.01 0.01 57 1009.7
20260904003232 92 168 9.0 18.0 0.00 0.01 0.01 57 1009.7
20260904003030 91 149 9.0 18.0 0.00 0.01 0.01 57 1006.6
20260904002743 92 150 9.0 18.0 0.00 0.01 0.01 57 1009.6
20260904002235 92 157 9.0 18.0 0.00 0.01 0.01 57 1009.7
20260904001746 93 157 11.0 18.0 0.00 0.01 0.01 56 1009.7
20260904001516 92 146 7.0 14.0 0.00 0.01 0.01 56 1006.6
20260904001230 93 189 10.0 16.0 0.00 0.01 0.01 56 1009.6
20260904000802 93 167 7.0 17.0 0.00 0.01 0.01 56 1009.6
20260904000248 94 163 9.0 17.0 0.00 0.01 0.01 55 1009.6
20260904000042 93 177 10.0 17.0 0.00 0.01 0.01 55 1006.5
20260903235731 94 135 10.0 16.0 0.00 0.01 0.01 55 1009.6
20260903235301 94 158 9.0 17.0 0.00 0.01 0.01 55 1009.6
20260903234721 95 182 11.0 19.0 0.00 0.01 0.01 54 1009.5
20260903234524 94 167 9.0 19.0 0.00 0.01 0.01 54 1006.5
20260903234235 95 169 10.0 19.0 0.00 0.01 0.01 53 1009.5
20260903233807 95 166 9.0 16.0 0.00 0.01 0.01 54 1009.5
20260903233229 95 156 9.0 21.0 0.00 0.01 0.01 53 1009.5
20260903233113 95 180 9.0 21.0 0.00 0.01 0.01 53 1006.4
20260903233001 95 176 10.0 21.0 0.00 0.01 0.01 52 1006.4
20260903232755 96 155 10.0 21.0 0.00 0.01 0.01 52 1009.4
20260903232224 96 157 10.0 18.0 0.00 0.01 0.01 52 1009.4
20260903231734 96 169 11.0 19.0 0.00 0.01 0.01 50 1009.4
20260903231530 96 157 12.0 19.0 0.00 0.01 0.01 51 1006.3
20260903231247 97 142 12.0 19.0 0.00 0.01 0.01 50 1009.3
20260903230729 97 150 11.0 19.0 0.00 0.01 0.01 51 1009.4
20260903230240 97 171 11.0 19.0 0.00 0.01 0.01 51 1009.4
20260903230028 97 173 11.0 19.0 0.00 0.01 0.01 51 1006.3
20260903225725 97 200 10.0 17.0 0.00 0.01 0.01 51 1009.4
20260903225234 97 154 9.0 17.0 0.00 0.01 0.01 51 1009.3
20260903224744 97 169 11.0 19.0 0.00 0.01 0.01 50 1009.2
20260903224525 97 160 12.0 19.0 0.00 0.01 0.01 50 1006.2
20260903224319 97 170 12.0 19.0 0.00 0.01 0.01 50 1009.2
20260903223738 98 175 15.0 22.0 0.00 0.01 0.01 49 1009.0
20260903223221 98 162 12.0 22.0 0.00 0.01 0.01 49 1009.0
20260903223046 97 173 15.0 22.0 0.00 0.01 0.01 49 1006.1
20260903222753 98 181 13.0 23.0 0.00 0.01 0.01 49 1009.1
20260903222237 98 158 13.0 22.0 0.00 0.01 0.01 49 1009.1
20260903221809 98 178 13.0 22.0 0.00 0.01 0.01 48 1009.0
20260903221558 98 159 15.0 22.0 0.00 0.01 0.01 47 1006.0
20260903221233 98 209 13.0 24.0 0.00 0.01 0.01 49 1009.0
20260903220803 98 159 13.0 19.0 0.00 0.01 0.01 49 1009.0
20260903220226 98 190 15.0 21.0 0.00 0.01 0.01 48 1009.1
20260903220042 98 190 13.0 23.0 0.00 0.01 0.01 49 1006.1
20260903215737 99 143 13.0 23.0 0.00 0.01 0.01 49 1009.2
20260903215306 99 198 15.0 24.0 0.00 0.01 0.01 49 1009.2
20260903214726 99 143 10.0 20.0 0.00 0.01 0.01 50 1009.2
20260903214519 98 163 12.0 20.0 0.00 0.01 0.01 49 1006.1
20260903214239 99 177 13.0 20.0 0.00 0.01 0.01 49 1009.2
20260903213721 99 171 12.0 22.0 0.00 0.01 0.01 50 1009.3
20260903213254 98 180 14.0 22.0 0.00 0.01 0.01 50 1009.4
20260903213057 98 167 12.0 19.0 0.00 0.01 0.01 50 1006.3
20260903212805 98 172 11.0 25.0 0.00 0.01 0.01 50 1009.4
20260903212228 98 175 16.0 28.0 0.00 0.01 0.01 49 1009.4
20260903211734 99 133 15.0 28.0 0.00 0.01 0.01 49 1009.5
20260903211537 98 148 15.0 22.0 0.00 0.01 0.01 49 1006.4
20260903211247 99 158 13.0 21.0 0.00 0.01 0.01 49 1009.5
20260903210737 99 171 18.0 21.0 0.00 0.01 0.01 49 1009.6
20260903210248 99 154 13.0 24.0 0.00 0.01 0.01 50 1009.6
20260903210019 98 175 10.0 24.0 0.00 0.01 0.01 49 1006.6
20260903205727 99 173 16.0 24.0 0.00 0.01 0.01 48 1009.6
20260903205238 99 171 15.0 24.0 0.00 0.01 0.01 49 1009.7
20260903204724 99 155 16.0 24.0 0.00 0.01 0.01 48 1009.7
20260903204520 99 182 15.0 23.0 0.00 0.01 0.01 49 1006.6
20260903204231 99 162 14.0 26.0 0.00 0.01 0.01 50 1009.6
20260903203742 99 141 15.0 22.0 0.00 0.01 0.01 49 1009.7
20260903203226 99 189 13.0 22.0 0.00 0.01 0.01 49 1009.7
20260903203019 99 192 13.0 22.0 0.00 0.01 0.01 49 1006.6
20260903202737 99 157 14.0 22.0 0.00 0.01 0.01 49 1009.7
20260903202221 99 182 11.0 23.0 0.00 0.01 0.01 50 1009.7
20260903201732 99 176 12.0 23.0 0.00 0.01 0.01 52 1009.8
20260903201509 98 169 15.0 23.0 0.00 0.01 0.01 49 1006.8
20260903201245 99 209 11.0 19.0 0.00 0.01 0.01 51 1009.9
20260903200727 99 187 13.0 19.0 0.00 0.01 0.01 50 1009.8
20260903200233 99 173 11.0 21.0 0.00 0.01 0.01 50 1009.9
20260903200001 98 219 10.0 23.0 0.00 0.01 0.01 49 1006.8
20260903195743 99 218 12.0 21.0 0.00 0.01 0.01 49 1009.9
20260903195235 99 192 17.0 21.0 0.00 0.01 0.01 49 1009.9
20260903194746 99 161 16.0 25.0 0.00 0.01 0.01 48 1009.9
20260903194535 98 180 14.0 21.0 0.00 0.01 0.01 49 1006.9
20260903194230 99 180 15.0 22.0 0.00 0.01 0.01 51 1010.0
20260903193740 99 192 11.0 22.0 0.00 0.01 0.01 51 1010.1
20260903193225 98 180 12.0 19.0 0.00 0.01 0.01 51 1010.2
20260903193036 98 165 11.0 19.0 0.00 0.01 0.01 52 1007.1
20260903192751 98 156 13.0 19.0 0.00 0.01 0.01 50 1010.3
20260903192241 98 170 12.0 19.0 0.00 0.01 0.01 51 1010.3
20260903191724 99 173 12.0 20.0 0.00 0.01 0.01 53 1010.2
20260903191543 98 173 11.0 20.0 0.00 0.01 0.01 54 1007.2
20260903191238 98 173 14.0 20.0 0.00 0.01 0.01 51 1010.3
20260903190729 98 171 9.0 17.0 0.00 0.01 0.01 53 1010.5